Weather in Temiraul

Russia / Republic of Dagestan     43°15′12″N   46°49′29″E
temp.,
°C
wind,
m/s
gust,
m/s
humid.,
%
clouds,
%
prec.,
mm/h
press.,
hPa
HPBL,
m
15 april, thu
thu1500:00+11w5107887 0.0 1017255
03:00+10wsw51175100 0.0 1017271
06:00+10wsw5127213 0.0 1017352
09:00+16wnw795124 0.0 10181022
12:00+19nw57410 0.0 10161557
15:00+21nnw453679 0.0 10161922
18:00+17n224769 0.0 101615
21:00+14sw1152100 0.0 101811
16 april, fri
fri1600:00+13sw2252100 0.0 101711
03:00+11w225973 0.0 101811
06:00+12wsw116249 0.0 101810
09:00+18ne22445 0.0 1019551
12:00+21e55375 0.0 10171581
15:00+21e77375 0.0 10161271
18:00+16e6105332 0.1 1016236
21:00+13ese35605 0.1 101773
17 april, sat
sat1700:00+12wnw336960 0.0 101838
03:00+11w228138 0.0 101816
06:00+11w2281100 0.0 101850
09:00+17wnw5656100 0.0 1019729
12:00+19wnw675081 0.0 10191457
15:00+16wnw7868100 0.0 1020695
18:00+15wsw5772100 0.0 1021325
21:00+14w4780100 0.2 1022353
18 april, sun
sun1800:00+12w3586100 0.4 1022226
03:00+12nnw1182100 0.4 102277
06:00+12e2384100 0.0 1021156
09:00+14ese4676100 0.0 1019479
12:00+17e775992 0.0 10171133
15:00+18e7756100 0.0 10161053
18:00+14e686953 0.2 1016438
21:00+12ese1377100 0.2 1018167
19 april, mon
mon1900:00+10sse118778 0.3 101823
03:00+11wnw4888100 0.5 1019368
06:00+11w61088100 0.3 1020574
09:00+12wnw5784100 0.4 1021659
12:00+14w5770100 0.1 10211051
15:00+15wnw576664 0.1 1021751
18:00+15wsw466831 0.0 1021193
21:00+12wsw33788 0.0 102232